Temp
9 9 9 8 8 8 8 7 7 7 7 6 6 5 5 4 4 5 4 4 4 4 4 4 4 4 4 5 5 5 5 5 5 6 6 6 6 6
9 9 8 8 8 7 7 7 7 6 7 6 6 5 5 4 4 4 4 5 4 4 4 4 4 4 4 4 4 4 4 4 4 4 4 5 5 5
9 9 8 8 7 7 7 7 6 6 6 6 5 5 4 4 4 4 4 4 4 3 4 3 3 3 4 4 4 4 4 4 4 4 4 4 4 4
9 9 8 7 7 7 6 6 6 6 5 5 5 5 4 4 4 4 4 4 4 4 4 3 3 4 4 4 4 4 4 4 4 4 4 4 4 4
10 9 8 8 7 7 6 6 6 6 5 5 5 5 5 4 4 4 4 4 3 3 3 3 3 4 3 4 4 4 4 4 4 4 4 4 4 4
10 9 9 8 8 7 7 6 6 5 5 5 5 5 4 4 3 3 3 3 3 2 3 3 3 4 4 4 4 4 3 3 4 5 4 4 4 4
10 9 8 8 8 8 7 7 6 5 5 5 5 5 4 4 4 4 3 3 3 3 3 3 3 3 3 3 3 3 4 4 3 3 4 4 4 4
11 10 9 9 9 8 8 7 6 5 5 5 5 5 4 4 3 3 3 3 3 3 3 3 2 3 2 2 3 3 3 3 3 3 3 3 3 4
11 10 10 10 9 9 9 8 7 5 4 4 4 4 4 4 4 3 3 2 2 3 3 3 2 2 2 2 2 1 1 1 1 2 2 3 3 3
12 11 11 10 10 9 8 8 7 6 4 4 4 4 4 4 4 3 3 3 3 2 2 3 2 2 2 1 1 1 0 1 1 1 2 2 3 3
12 12 12 11 9 9 9 8 7 5 3 3 3 4 4 4 3 3 3 3 3 3 2 3 2 2 1 1 1 1 1 1 1 2 2 2 2 3
13 12 12 11 10 9 8 8 7 4 4 4 4 4 3 4 3 3 2 2 2 3 2 2 2 2 2 2 1 1 1 1 2 2 2 2 2 3
13 12 11 11 10 9 8 7 7 5 4 4 3 3 3 3 3 3 3 3 3 2 2 2 2 1 1 1 2 1 1 1 1 1 1 1 1 1
12 12 11 11 10 9 8 7 7 5 5 4 3 3 3 3 3 3 2 2 2 2 2 1 1 1 1 1 1 1 1 0 1 1 1 1 1 1
11 10 11 11 10 8 7 7 6 5 3 3 3 3 3 3 3 2 2 2 2 2 1 1 1 1 1 1 1 1 0 0 -0 0 0 1 1 1
11 10 11 10 9 7 7 6 5 4 3 3 3 3 3 2 2 2 2 2 2 1 1 1 1 1 1 0 -0 -0 -1 -0 -0 -0 -0 -0 -0 0
10 10 10 9 8 7 6 5 4 4 3 4 3 3 2 2 2 2 2 2 2 2 1 1 1 0 -0 -1 -1 -1 -2 -1 -1 -1 -1 -0 -0 -0
9 10 9 8 7 6 5 5 4 4 4 3 3 2 2 2 2 2 3 3 3 2 1 1 1 0 -0 -1 -2 -2 -2 -2 -1 -1 -1 -1 -0 -1
8 8 8 6 6 5 4 4 4 4 4 3 2 2 2 2 2 3 3 3 3 2 1 1 0 -0 -0 -0 -1 -2 -2 -1 -1 -1 -1 -1 -1 -0
8 8 7 6 5 4 4 4 4 4 3 2 3 2 2 2 3 3 3 3 3 2 1 0 0 -0 -1 -1 -1 -1 -2 -2 -2 -1 -1 -1 -1 -1
6 6 6 5 4 4 4 4 4 3 3 3 3 2 2 3 3 3 3 3 2 1 1 0 -0 -1 -1 -1 -1 -1 -2 -2 -2 -2 -2 -2 -2 -1
6 5 5 4 4 4 4 4 4 3 3 3 3 3 3 3 3 3 3 3 2 1 1 0 -0 -1 -1 -1 -1 -1 -1 -2 -2 -3 -3 -3 -3 -3
4 4 5 4 4 4 4 3 3 3 4 3 3 3 3 3 3 3 2 2 2 1 1 0 -0 -1 -1 -1 -1 -1 -2 -2 -2 -2 -3 -3 -3 -3
Height
3214 3214 3213 3213 3212 3210 3208 3207 3206 3205 3204 3204 3202 3201 3200 3199 3199 3198 3197 3196 3195 3193 3192 3191 3189 3187 3185 3183 3182 3183 3183 3183 3182 3180 3180 3180 3180 3181
3211 3211 3210 3209 3209 3209 3207 3205 3204 3203 3202 3201 3200 3199 3198 3198 3197 3196 3195 3193 3191 3189 3187 3186 3184 3183 3181 3179 3177 3176 3175 3175 3176 3176 3175 3174 3174 3174
3208 3208 3207 3206 3205 3204 3203 3203 3201 3199 3199 3198 3197 3196 3196 3195 3194 3192 3191 3189 3188 3186 3184 3182 3180 3178 3176 3175 3173 3172 3170 3169 3168 3168 3167 3167 3167 3167
3204 3204 3203 3202 3201 3199 3199 3198 3198 3196 3194 3193 3193 3193 3192 3190 3189 3188 3186 3185 3184 3182 3180 3176 3174 3171 3170 3169 3167 3166 3164 3163 3161 3160 3160 3160 3159 3159
3200 3198 3197 3196 3196 3194 3193 3193 3192 3192 3190 3188 3188 3187 3186 3185 3184 3183 3183 3181 3178 3177 3174 3170 3168 3166 3164 3162 3161 3159 3157 3155 3154 3152 3151 3150 3150 3150
3195 3194 3193 3191 3190 3189 3188 3187 3185 3185 3184 3182 3181 3180 3179 3178 3177 3177 3177 3175 3173 3170 3167 3163 3160 3158 3155 3152 3150 3148 3147 3146 3146 3144 3142 3141 3140 3139
3190 3189 3188 3187 3187 3184 3181 3181 3178 3177 3176 3175 3175 3174 3173 3171 3171 3169 3168 3167 3168 3164 3162 3158 3155 3152 3150 3146 3143 3141 3138 3136 3134 3134 3134 3133 3132 3131
3183 3182 3179 3177 3178 3176 3174 3174 3171 3169 3167 3166 3166 3166 3166 3165 3163 3163 3160 3158 3158 3158 3153 3152 3148 3145 3141 3136 3135 3133 3130 3128 3126 3124 3122 3122 3122 3121
3175 3174 3172 3171 3170 3169 3168 3166 3165 3162 3161 3160 3159 3159 3159 3158 3157 3155 3152 3150 3150 3147 3142 3140 3139 3135 3132 3128 3126 3123 3121 3119 3116 3114 3113 3112 3112 3112
3167 3166 3164 3162 3162 3161 3159 3158 3157 3156 3155 3153 3151 3151 3149 3149 3148 3146 3145 3143 3141 3141 3135 3128 3128 3125 3122 3120 3118 3115 3113 3112 3109 3107 3104 3102 3100 3098
3160 3157 3157 3155 3154 3153 3151 3151 3150 3148 3147 3146 3144 3144 3143 3141 3140 3138 3137 3135 3132 3131 3128 3122 3119 3115 3113 3113 3110 3107 3104 3101 3097 3096 3094 3092 3090 3087
3149 3148 3150 3148 3146 3145 3145 3145 3145 3143 3142 3140 3138 3138 3137 3135 3133 3132 3130 3128 3125 3121 3119 3116 3113 3108 3103 3104 3102 3098 3094 3090 3087 3083 3082 3081 3079 3076
3139 3140 3141 3140 3138 3137 3137 3137 3138 3136 3135 3135 3134 3132 3131 3129 3126 3123 3121 3118 3115 3114 3110 3106 3105 3100 3096 3092 3093 3090 3085 3081 3078 3075 3072 3070 3068 3065
3132 3132 3132 3131 3129 3128 3129 3130 3129 3127 3128 3127 3129 3128 3127 3123 3119 3116 3114 3111 3110 3106 3103 3100 3096 3093 3088 3085 3083 3081 3077 3073 3069 3066 3063 3060 3059 3056
3123 3123 3125 3123 3120 3120 3122 3122 3120 3120 3121 3120 3121 3122 3120 3116 3112 3109 3107 3105 3102 3099 3096 3093 3089 3086 3082 3078 3074 3072 3066 3064 3061 3058 3054 3050 3048 3045
3112 3114 3116 3115 3115 3115 3113 3113 3113 3114 3112 3114 3114 3114 3113 3110 3107 3103 3100 3098 3097 3094 3091 3087 3082 3079 3076 3072 3068 3064 3060 3055 3051 3047 3043 3039 3037 3033
3106 3104 3106 3107 3108 3108 3106 3105 3108 3108 3109 3109 3108 3107 3107 3104 3100 3096 3093 3092 3090 3087 3085 3082 3077 3073 3070 3066 3062 3057 3052 3047 3043 3038 3033 3028 3026 3021
3098 3099 3098 3099 3098 3097 3099 3098 3100 3101 3101 3102 3102 3101 3099 3097 3094 3090 3087 3085 3085 3081 3078 3075 3072 3069 3065 3063 3057 3050 3045 3040 3035 3031 3024 3016 3014 3010
3090 3089 3090 3094 3090 3091 3092 3092 3094 3095 3094 3093 3094 3095 3093 3091 3088 3084 3081 3080 3078 3076 3073 3069 3066 3062 3058 3054 3051 3043 3036 3031 3026 3022 3015 3009 3000 2995
3082 3080 3083 3085 3084 3085 3085 3085 3086 3090 3088 3087 3086 3087 3085 3084 3082 3079 3077 3076 3074 3072 3069 3065 3061 3057 3052 3047 3043 3040 3031 3025 3018 3012 3005 2999 2990 2982
3073 3072 3076 3076 3075 3078 3079 3079 3080 3083 3081 3081 3079 3078 3078 3078 3076 3074 3071 3071 3070 3067 3065 3061 3057 3053 3048 3044 3038 3034 3029 3022 3013 3004 2995 2985 2975 2965
3067 3070 3069 3069 3068 3070 3071 3074 3075 3076 3075 3074 3072 3070 3070 3072 3072 3069 3067 3064 3063 3061 3059 3056 3053 3048 3044 3039 3034 3028 3023 3018 3011 3002 2991 2980 2965 2946
3062 3063 3062 3063 3063 3065 3066 3067 3069 3069 3066 3067 3064 3063 3063 3064 3064 3063 3061 3059 3058 3057 3055 3053 3048 3044 3040 3035 3030 3024 3018 3012 3004 2999 2992 2981 2971 2955
Wind_Speed
11 13 13 13 14 15 16 17 12 10 8 8 10 10 9 8 9 11 13 14 15 16 17 19 20 20 21 21 21 21 20 19 21 24 27 28 28 28
13 15 16 17 15 13 13 13 15 13 10 11 11 11 10 12 13 13 15 18 19 21 24 26 27 26 26 25 26 26 26 24 22 21 22 24 26 28
15 15 16 18 20 17 15 13 13 17 11 14 15 13 14 15 16 17 19 20 22 24 28 29 31 30 28 28 28 28 28 28 27 25 26 26 25 24
17 18 18 18 18 18 17 16 16 16 17 18 17 17 18 19 19 21 22 22 23 26 29 30 30 29 31 32 32 31 29 29 30 30 29 29 29 29
18 20 21 21 20 18 19 19 19 20 21 16 18 21 22 24 23 25 27 29 29 31 30 30 29 29 28 29 30 31 32 32 32 31 33 33 32 32
20 21 22 24 22 23 23 21 22 23 23 21 22 24 25 27 28 28 31 33 33 33 32 29 30 33 34 34 34 34 32 31 32 34 33 32 30 30
22 22 24 23 24 24 24 26 26 26 28 28 24 26 29 30 32 34 34 35 31 31 33 31 31 31 31 33 33 34 36 36 35 33 32 32 32 32
23 21 26 28 24 24 25 27 28 29 29 29 26 27 23 30 32 35 38 29 26 31 34 29 31 33 34 37 35 34 34 34 36 36 34 33 33 33
25 25 26 28 30 27 27 27 30 31 31 29 29 27 26 29 28 30 30 28 31 31 36 37 36 37 35 36 33 33 30 30 32 34 35 36 36 35
26 26 28 33 30 28 30 32 30 29 23 28 29 24 25 23 24 26 30 30 31 33 38 42 39 36 33 31 31 29 28 29 31 34 36 38 39 39
25 30 30 31 29 30 32 31 28 26 25 27 26 25 24 23 27 29 31 33 35 35 35 37 36 35 32 28 27 29 32 34 35 35 35 36 36 38
29 29 32 32 31 32 31 28 28 24 27 28 26 24 24 25 28 30 30 33 34 34 33 32 31 33 35 30 29 29 31 32 33 33 33 33 34 38
31 33 36 38 35 32 29 28 26 24 28 27 24 23 23 26 28 29 31 31 30 30 32 33 31 31 33 35 29 29 31 30 29 29 31 31 31 32
30 31 40 40 36 31 29 27 24 22 22 20 21 21 25 26 28 31 28 26 27 27 29 31 32 33 35 35 31 26 27 26 28 29 30 31 30 30
31 31 37 37 33 30 28 25 21 19 19 18 21 22 24 26 26 28 26 24 26 27 28 31 32 32 31 31 31 28 30 29 29 30 31 33 33 33
29 29 37 36 32 27 25 20 16 18 18 19 21 22 23 24 25 24 23 25 26 25 26 29 30 28 28 29 30 30 30 33 34 34 36 37 35 36
27 30 37 31 27 23 19 15 16 17 17 20 20 20 21 22 21 22 22 24 26 27 25 24 26 27 27 27 30 31 33 34 34 36 37 38 35 36
26 34 30 27 22 19 16 15 17 18 19 20 19 19 20 19 20 21 22 23 26 25 24 24 25 26 26 24 27 31 30 31 32 33 34 38 35 36
26 28 24 21 19 16 16 17 19 19 19 19 19 20 19 18 19 20 21 23 24 22 22 25 26 27 28 28 25 29 33 34 34 33 35 37 41 39
27 22 21 20 16 17 17 17 19 20 19 19 19 19 17 18 18 19 20 20 20 20 21 23 25 26 28 29 28 27 32 33 35 36 38 39 43 45
21 19 21 20 18 17 16 17 19 20 19 18 19 17 15 16 16 16 17 17 18 19 20 22 24 24 26 27 28 28 28 30 35 38 42 46 45 57
22 22 21 18 17 16 15 18 20 20 18 18 16 14 13 14 14 15 15 16 18 19 20 22 22 23 25 26 27 30 31 32 33 34 38 41 49 66
21 19 16 16 15 15 17 19 21 19 16 15 14 13 12 13 13 15 15 15 17 19 19 20 20 22 24 26 27 30 32 34 35 34 34 32 44 49
Wind_Direction
317 329 338 348 350 348 350 357 339 297 288 287 304 301 300 295 293 299 299 298 303 307 311 312 311 306 301 301 300 292 288 283 276 273 273 272 267 261
306 313 318 323 329 331 331 337 348 321 285 273 282 289 280 289 293 299 299 295 298 303 307 307 303 304 304 302 302 302 303 299 295 290 279 270 269 270
293 300 305 310 315 321 320 318 317 333 290 283 271 281 274 277 282 289 296 295 296 298 305 304 302 296 294 295 296 296 296 298 296 293 292 288 281 277
286 297 297 299 310 311 313 309 305 318 308 297 279 276 283 268 270 282 283 287 295 300 302 303 301 295 292 294 295 294 292 293 292 290 287 284 284 281
286 292 297 302 302 299 297 296 296 300 303 298 283 269 272 268 271 284 293 289 295 296 297 300 299 298 295 293 292 292 290 290 288 285 286 286 282 279
275 286 292 293 295 295 296 286 284 285 289 289 272 265 265 268 270 275 284 296 289 296 300 296 297 299 302 302 301 297 294 291 288 287 288 286 285 283
275 283 283 283 292 286 292 291 276 279 284 287 284 274 269 272 275 279 286 291 290 290 290 291 296 298 300 299 297 295 295 293 291 287 283 280 279 279
272 273 278 283 291 289 290 287 278 275 279 281 287 281 283 292 286 287 285 296 291 290 286 292 299 302 304 301 300 295 292 288 287 286 285 282 278 277
275 272 276 281 283 294 297 293 286 276 277 281 288 289 275 292 291 291 290 291 291 294 298 302 305 303 301 300 299 297 291 286 283 284 283 282 280 279
276 270 275 276 283 292 297 293 285 275 274 275 284 282 277 285 291 290 293 292 294 298 303 304 304 304 302 302 302 296 291 287 284 282 281 282 282 282
280 276 278 281 290 291 293 289 277 267 271 277 277 286 279 287 297 295 296 296 298 303 303 302 306 307 305 304 297 292 290 288 286 284 282 280 281 280
275 285 280 281 290 292 289 278 272 271 270 272 276 281 279 287 292 293 295 298 303 307 304 303 305 304 302 301 299 298 295 293 291 290 289 285 281 280
267 282 278 284 290 288 280 276 275 268 267 269 274 279 283 286 292 294 297 301 305 308 307 306 308 306 304 307 308 305 299 299 298 296 292 289 288 288
264 269 275 282 286 284 278 272 271 269 269 270 269 275 284 288 293 297 302 307 308 307 306 309 311 309 308 309 311 308 306 306 301 299 296 294 292 290
253 262 275 282 283 274 265 268 269 266 260 258 269 276 282 289 293 297 300 306 311 310 309 307 306 308 311 314 315 317 311 306 305 301 297 295 296 295
252 266 274 276 269 261 263 263 263 261 255 262 269 277 282 286 290 293 300 308 308 306 307 308 308 312 314 317 316 315 311 310 307 306 304 302 304 300
260 268 269 263 257 258 257 257 260 257 261 267 274 279 280 285 289 293 300 306 308 310 311 310 312 315 318 319 315 313 311 309 306 307 306 304 306 305
254 266 260 255 251 247 243 247 252 258 266 274 277 277 280 285 287 294 304 309 309 311 312 313 316 317 317 319 316 313 311 310 311 312 310 311 311 311
242 250 250 245 240 236 239 248 257 265 270 269 276 279 280 284 290 298 306 310 310 312 315 319 319 320 322 325 329 321 321 320 320 320 319 318 317 318
241 250 241 236 234 235 241 254 262 265 263 269 274 273 276 285 293 302 307 308 310 313 318 318 320 325 326 328 332 330 324 324 323 323 323 322 321 323
238 231 232 229 231 240 249 256 259 260 261 267 268 272 279 287 294 299 305 311 312 318 323 324 325 327 327 330 330 330 328 326 327 328 327 327 325 330
229 227 226 231 238 245 249 253 260 259 261 264 268 275 283 286 292 299 307 313 315 322 327 325 327 328 329 333 332 330 331 331 332 332 330 331 333 335
224 225 232 240 246 252 249 254 261 258 259 266 272 277 281 283 291 300 307 311 314 319 323 323 328 330 332 335 336 335 337 338 338 337 339 337 338 337